Home   Weather   Longueuil   Past weeks

Flag for Canada Past Weather in Longueuil, Quebec, Canada — Yesterday and Last 2 Weeks

Now
39 °F

Chilly.


Feels Like: 35 °F
Forecast: 36 / 44 °F
Wind: 6 mph from Northeast

Location: Mc Tavish

Current Time: Apr 30, 2017 at 11:19:22 am

Latest Report: Apr 30, 2017 at 10:00 am


Visibility: N/A

Pressure: 30.36 "Hg

Humidity: 62%

Dew Point: 27 °F

Location of LongueuilLocation

Past Weather in Longueuil — Graph

°F

Longueuil Temperature Yesterday

Maximum temperature yesterday: 66 °F (at 2:00 pm)
Minimum temperature yesterday: 44 °F (at 11:00 pm)
Average temperature yesterday: 58 °F

High & Low Weather Summary for the Past Weeks

 TemperatureHumidityPressure
High76 °F (Apr 27, 6:00 pm)100% (Apr 16, 4:00 pm)30.49 "Hg (Apr 16, 4:00 pm)
Low31 °F (Apr 24, 8:00 am)26% (Apr 15, 2:00 pm)29.59 "Hg (Apr 16, 5:00 pm)
Average50 °F71%30.02 "Hg
* Reported Apr 15 10:00 am — Apr 30 10:00 am, Longueuil, Weather by CustomWeather, © 2017

Note: Actual official high and low records may vary slightly from our data, if they occured in-between our weather recording intervals... More about our weather records

Advertising

Longueuil Weather History for the Previous 24 Hours

Scroll right to see more
 ConditionsComfort  
Time TempWeatherWind HumidityBarometerVisibility
10:00 am
Sun, Apr 30
39 °FChilly.6 mph62%30.36 "HgN/A
9:00 am40 °FChilly.6 mph66%30.38 "HgN/A
8:00 am38 °FChilly.6 mph60%30.37 "HgN/A
7:00 am36 °FChilly.8 mph62%30.38 "HgN/A
6:00 am36 °FChilly.8 mph65%30.35 "HgN/A
5:00 am38 °FChilly.6 mph59%30.33 "HgN/A
4:00 am39 °FChilly.6 mph58%30.32 "HgN/A
3:00 am40 °FChilly.7 mph56%30.32 "HgN/A
2:00 am41 °FQuite cool.3 mph54%30.31 "HgN/A
1:00 am42 °FQuite cool.8 mph51%30.28 "HgN/A
12:00 am42 °FQuite cool.8 mph49%30.24 "HgN/A
11:00 pm
Sat, Apr 29
44 °FQuite cool.8 mph47%30.23 "HgN/A
10:00 pm45 °FQuite cool.8 mph47%30.21 "HgN/A
9:00 pm46 °FCool.14 mph44%30.17 "HgN/A
8:00 pm49 °FCool.12 mph41%30.10 "HgN/A
7:00 pm53 °FCool.13 mph41%30.06 "HgN/A
6:00 pm61 °FRefreshingly cool.7 mph30%29.99 "HgN/A
5:00 pm64 °FMild.3 mph30%29.93 "HgN/A
4:00 pm64 °FMild.8 mph29%29.92 "HgN/A
3:00 pm65 °FMild.7 mph32%29.89 "HgN/A
2:00 pm66 °FMild.5 mph40%29.85 "HgN/A
1:00 pm65 °FMild.7 mph49%29.86 "HgN/A
12:00 pm64 °FMild.7 mph49%29.86 "HgN/A
11:00 am63 °FMild.6 mph50%29.87 "HgN/A
Weather by CustomWeather, © 2017

See weather overviewHow to use our weather pages